Location: Easthampton
(42.2676°N, 72.6690°W)
Time: 00:08:43
(UTC+00:00)

RS-44 - Pass Details

Date: 23 April 2024
Orbit: 1174 x 1511 km, 82.5° (Epoch: 28 May)

Event Time Altitude Azimuth Distance (km) Brightness Sun altitude
Rises 01:48:04 0° 220° (SW) 4,635 ? -21.2°
Reaches altitude 10° 01:51:27 10° 230° (SW) 3,642 ? -21.6°
Maximum altitude 01:59:02 32° 290° (WNW) 2,309 ? -22.6°
Drops below altitude 10° 02:06:22 10° 351° (N) 3,494 ? -23.6°
Sets 02:09:35 0° 2° (N) 4,422 ? -24.0°
